This is the latest recevied weather packets stored in our database for station/object N5GMJ. If no packets are shown the sender has not sent any weather packets the latest 10 day(s).
| Time | Temp. | Humidity | Pressure | Rain* | Wind** | Luminosity | Snow |
|---|---|---|---|---|---|---|---|
| 1777327694 | 35.56° C | 36% | 1008.8 hPa | 0 mm | - | - | - |
| 1777327390 | 35° C | 31% | 1008.7 hPa | 0 mm | - | - | - |
| 1777327088 | 33.89° C | 33% | 1008.8 hPa | 0 mm | - | - | - |
| 1777326784 | 34.44° C | 32% | 1008.9 hPa | 0 mm | - | - | - |
| 1777326482 | 34.44° C | 38% | 1008.8 hPa | 0 mm | - | - | - |
| 1777326179 | 33.89° C | 33% | 1008.8 hPa | 0 mm | - | - | - |
| 1777325877 | 33.33° C | 37% | 1008.8 hPa | 0 mm | - | - | - |
| 1777325575 | 33.33° C | 36% | 1009 hPa | 0 mm | - | - | - |
| 1777325273 | 33.89° C | 38% | 1008.7 hPa | 0 mm | - | - | - |
| 1777324970 | 34.44° C | 36% | 1008.8 hPa | 0 mm | - | - | - |
| 1777324666 | 33.89° C | 36% | 1008.9 hPa | 0 mm | - | - | - |
| 1777324364 | 33.89° C | 37% | 1009 hPa | 0 mm | - | - | - |
| 1777324062 | 34.44° C | 36% | 1008.9 hPa | 0 mm | - | - | - |
| 1777323759 | 33.89° C | 35% | 1009 hPa | 0 mm | - | - | - |
| 1777323456 | 33.33° C | 37% | 1009 hPa | 0 mm | - | - | - |
| 1777323153 | 33.33° C | 38% | 1009.1 hPa | 0 mm | - | - | - |
| 1777322851 | 33.89° C | 36% | 1009.1 hPa | 0 mm | - | - | - |
| 1777322550 | 33.89° C | 37% | 1009.1 hPa | 0 mm | - | - | - |
| 1777322246 | 33.33° C | 39% | 1009.2 hPa | 0 mm | - | - | - |
| 1777321943 | 33.33° C | 37% | 1009.1 hPa | 0 mm | - | - | - |
| 1777321640 | 33.33° C | 36% | 1009.2 hPa | 0 mm | - | - | - |
| 1777321336 | 33.33° C | 36% | 1009.2 hPa | 0 mm | - | - | - |
| 1777321033 | 34.44° C | 36% | 1009.3 hPa | 0 mm | - | - | - |
| 1777320731 | 33.33° C | 40% | 1009.3 hPa | 0 mm | - | - | - |
| 1777320428 | 32.78° C | 35% | 1009.4 hPa | 0 mm | - | - | - |
* Rain latest hour (hover to see other rain measurements)
** Current wind speed in m/s (hover to see current wind gust speed)